Location: Grantsboro
(35.1404°N, 76.8424°W)
Time: 20:49:03
(UTC+00:00)

ISS - Pass Details

Date: 18 January 2020
Orbit: 416 x 423 km, 51.6° (Epoch: 17 February)

Event Time Altitude Azimuth Distance (km) Brightness Sun altitude
Rises 00:11:25 0° 214° (SW) 2,362 0.7 -22.4°
Reaches altitude 10° 00:13:33 10° 209° (SSW) 1,500 -0.5 -22.9°
Enters shadow 00:15:13 25° 195° (SSW) 882 -1.9 -23.2°
